Weather History for Reno - Stead, NV

Change the Weather History Date:

Sunday, March 31, 2013

  Actual Average (KRNO) Record (KRNO)
Temperature  
Mean Temperature 45 °F 48 °F  
Max Temperature 51 °F 60 °F 83 °F (1966)
Min Temperature 39 °F 35 °F 12 °F (1905)
Degree Days  
Heating Degree Days 20 17  
Month to date heating degree days 597  
Since 1 July heating degree days 4236  
Cooling Degree Days 0 0  
Month to date cooling degree days 0  
Year to date cooling degree days 0  
Moisture  
Dew Point 34 °F    
Average Humidity 64    
Maximum Humidity 87    
Minimum Humidity 41    
Precipitation  
Precipitation 0.07 in 0.02 in 1.03 in (1899)
Month to date precipitation 0.76  
Year to date precipitation 2.81  
Snow  
Snow 0.00 in 0.00 in 1.80 in (1980)
Month to date snowfall 2.0  
Since 1 July snowfall 21.0  
Snow Depth -    
Sea Level Pressure  
Sea Level Pressure 30.04 in    
Wind  
Wind Speed 12 mph (WNW)    
Max Wind Speed 26 mph    
Max Gust Speed 31 mph    
Visibility 10 miles    
Events Rain    
T = Trace of Precipitation, MM = Missing Value Source: NWS Daily Summary

Daily Weather History Graph

Daily Weather History Graph

Search for Another Location

Airport:

Trip Planner

Search our weather history database for the weather conditions in past years. The results will help you decide how hot, cold, wet, or windy it might be!

Date:

Astronomy

Mar. 31, 2013 Rise Set
Actual Time 6:44 AM PDT 7:22 PM PDT
Civil Twilight 6:17 AM PDT 7:50 PM PDT
Nautical Twilight 5:45 AM PDT 8:22 PM PDT
Astronomical Twilight 5:12 AM PDT 8:55 PM PDT
Moon No Moon Rise 9:38 AM PDT (3/31)
Length of Visible Light 13h 32m
Length of Day
12h 38m
Waning Gibbous, 76% of the Moon is Illuminated
Mar 31
Waning Gibbous
Apr 2
Last Quarter
Apr 10
New
Apr 18
First Quarter
Apr 25
Full

Hourly Weather History & Observations

Time (PDT) Temp. Windchill Dew Point Humidity Pressure Visibility Wind Dir Wind Speed Gust Speed Precip Events Conditions
12:15 AM 51.8 °F - 37.4 °F 58% 30.03 in 10.0 mi West 16.1 mph 20.7 mph N/A   Mostly Cloudy
12:35 AM 51.8 °F - 37.4 °F 58% 30.02 in 10.0 mi WNW 15.0 mph - N/A   Overcast
12:55 AM 50.0 °F - 35.6 °F 58% 30.02 in 10.0 mi WNW 10.4 mph - N/A   Overcast
1:15 AM 50.0 °F - 37.4 °F 62% 30.01 in 10.0 mi NW 12.7 mph - N/A   Overcast
1:35 AM 50.0 °F - 35.6 °F 58% 30.01 in 10.0 mi NW 11.5 mph - N/A   Overcast
1:55 AM 50.0 °F - 35.6 °F 58% 30.01 in 10.0 mi West 8.1 mph - N/A   Overcast
2:15 AM 50.0 °F - 35.6 °F 58% 30.00 in 10.0 mi West 10.4 mph - N/A   Overcast
2:35 AM 50.0 °F - 35.6 °F 58% 30.00 in 10.0 mi West 9.2 mph - N/A   Overcast
2:55 AM 50.0 °F - 35.6 °F 58% 30.00 in 10.0 mi NW 8.1 mph - N/A   Overcast
3:15 AM 48.2 °F - 35.6 °F 62% 30.00 in 10.0 mi NNW 4.6 mph - N/A   Overcast
3:35 AM 46.4 °F 43.5 °F 35.6 °F 66% 29.99 in 10.0 mi WNW 5.8 mph - N/A   Overcast
3:55 AM 46.4 °F 42.9 °F 37.4 °F 71% 29.99 in 10.0 mi West 6.9 mph - N/A   Overcast
4:15 AM 46.4 °F 41.9 °F 37.4 °F 71% 29.99 in 10.0 mi West 9.2 mph - N/A   Overcast
4:35 AM 48.2 °F - 37.4 °F 66% 29.99 in 10.0 mi West 17.3 mph 24.2 mph N/A   Overcast
4:55 AM 46.4 °F 40.1 °F 37.4 °F 71% 30.00 in 10.0 mi West 15.0 mph - N/A   Mostly Cloudy
5:15 AM 46.4 °F 38.7 °F 35.6 °F 66% 30.01 in 10.0 mi West 20.7 mph 27.6 mph N/A   Mostly Cloudy
5:35 AM 44.6 °F 37.4 °F 35.6 °F 71% 30.01 in 10.0 mi West 16.1 mph 23.0 mph N/A   Mostly Cloudy
5:55 AM 44.6 °F 37.8 °F 35.6 °F 71% 30.01 in 10.0 mi WNW 15.0 mph - N/A   Partly Cloudy
6:15 AM 44.6 °F 38.1 °F 35.6 °F 71% 30.03 in 10.0 mi WNW 13.8 mph - N/A   Scattered Clouds
6:35 AM 44.6 °F 35.3 °F 35.6 °F 71% 30.05 in 10.0 mi West 26.5 mph 31.1 mph N/A   Overcast
6:55 AM 41.0 °F 35.8 °F 37.4 °F 87% 30.08 in 5.0 mi West 8.1 mph - 0.01 in Rain Light Rain
7:15 AM 41.0 °F 35.2 °F 37.4 °F 87% 30.08 in 6.0 mi West 9.2 mph - 0.03 in Rain Light Rain
7:35 AM 39.2 °F - 35.6 °F 87% 30.09 in 7.0 mi Calm Calm - 0.03 in Rain Light Rain
7:55 AM 41.0 °F 36.4 °F 35.6 °F 81% 30.09 in 9.0 mi WNW 6.9 mph - 0.04 in Rain Light Rain
8:15 AM 41.0 °F 36.4 °F 37.4 °F 87% 30.09 in 10.0 mi West 6.9 mph - N/A   Overcast
8:35 AM 41.0 °F 38.0 °F 37.4 °F 87% 30.09 in 10.0 mi NW 4.6 mph - N/A   Overcast
8:55 AM 41.0 °F 35.8 °F 37.4 °F 87% 30.09 in 10.0 mi WNW 8.1 mph - N/A Rain Light Rain
9:15 AM 41.0 °F 37.1 °F 35.6 °F 81% 30.12 in 8.0 mi NW 5.8 mph - 0.01 in Rain Light Rain
9:35 AM 41.0 °F 37.1 °F 37.4 °F 87% 30.11 in 5.0 mi NNE 5.8 mph - 0.02 in Rain Light Rain
9:55 AM 41.0 °F 35.2 °F 37.4 °F 87% 30.10 in 10.0 mi North 9.2 mph - 0.02 in Rain Light Rain
10:15 AM 41.0 °F 35.8 °F 37.4 °F 87% 30.09 in 10.0 mi NNW 8.1 mph - N/A   Partly Cloudy
10:35 AM 44.6 °F 42.2 °F 37.4 °F 76% 30.09 in 10.0 mi NW 4.6 mph - N/A   Partly Cloudy
10:55 AM 46.4 °F 42.9 °F 37.4 °F 71% 30.08 in 10.0 mi WNW 6.9 mph - N/A   Partly Cloudy
11:15 AM 46.4 °F 42.4 °F 39.2 °F 76% 30.08 in 10.0 mi NW 8.1 mph - N/A   Partly Cloudy
11:35 AM 48.2 °F - 37.4 °F 66% 30.08 in 10.0 mi West 8.1 mph - N/A   Mostly Cloudy
11:55 AM 50.0 °F - 35.6 °F 58% 30.08 in 10.0 mi WSW 13.8 mph 23.0 mph N/A   Mostly Cloudy
12:15 PM 50.0 °F - 35.6 °F 58% 30.07 in 10.0 mi WNW 18.4 mph 23.0 mph N/A   Scattered Clouds
12:35 PM 50.0 °F - 33.8 °F 54% 30.07 in 10.0 mi West 15.0 mph - N/A   Partly Cloudy
12:55 PM 50.0 °F - 32.0 °F 50% 30.07 in 10.0 mi WNW 13.8 mph 21.9 mph N/A   Mostly Cloudy
1:15 PM 50.0 °F - 32.0 °F 50% 30.07 in 10.0 mi West 12.7 mph - N/A   Scattered Clouds
1:35 PM 50.0 °F - 32.0 °F 50% 30.06 in 10.0 mi West 11.5 mph - N/A   Scattered Clouds
1:55 PM 50.0 °F - 32.0 °F 50% 30.06 in 10.0 mi WNW 12.7 mph 17.3 mph N/A   Mostly Cloudy
2:15 PM 50.0 °F - 32.0 °F 50% 30.06 in 10.0 mi West 11.5 mph 17.3 mph N/A   Overcast
2:35 PM 50.0 °F - 32.0 °F 50% 30.05 in 10.0 mi WSW 10.4 mph - N/A   Mostly Cloudy
2:55 PM 50.0 °F - 32.0 °F 50% 30.04 in 10.0 mi West 15.0 mph 18.4 mph N/A   Clear
3:15 PM 50.0 °F - 32.0 °F 50% 30.04 in 10.0 mi West 11.5 mph - N/A   Clear
3:35 PM 51.8 °F - 28.4 °F 41% 30.03 in 10.0 mi West 13.8 mph 20.7 mph N/A   Clear
3:55 PM 50.0 °F - 28.4 °F 43% 30.04 in 10.0 mi WSW 10.4 mph - N/A   Clear
4:15 PM 50.0 °F - 28.4 °F 43% 30.03 in 10.0 mi West 10.4 mph - N/A   Clear
4:35 PM 51.8 °F - 28.4 °F 41% 30.03 in 10.0 mi West 12.7 mph 16.1 mph N/A   Partly Cloudy
4:55 PM 48.2 °F - 32.0 °F 54% 30.03 in 10.0 mi SW 19.6 mph 23.0 mph N/A   Partly Cloudy
5:15 PM 48.2 °F - 32.0 °F 54% 30.02 in 10.0 mi WSW 13.8 mph - N/A   Clear
5:35 PM 48.2 °F - 32.0 °F 54% 30.02 in 10.0 mi WSW 15.0 mph - N/A   Clear
5:55 PM 48.2 °F - 28.4 °F 46% 30.02 in 10.0 mi WSW 16.1 mph 21.9 mph N/A   Clear
6:15 PM 48.2 °F - 32.0 °F 54% 30.03 in 10.0 mi West 15.0 mph - N/A   Scattered Clouds
6:35 PM 48.2 °F - 35.6 °F 62% 30.03 in 10.0 mi NNW 10.4 mph - N/A   Mostly Cloudy
7:15 PM 46.4 °F 41.5 °F 32.0 °F 57% 30.03 in 10.0 mi West 10.4 mph 20.7 mph N/A   Overcast
7:35 PM 46.4 °F 40.7 °F 32.0 °F 57% 30.02 in 10.0 mi NW 12.7 mph - N/A   Overcast
7:55 PM 44.6 °F 38.8 °F 32.0 °F 61% 30.02 in 10.0 mi NW 11.5 mph - N/A   Overcast
8:15 PM 44.6 °F 39.2 °F 32.0 °F 61% 30.03 in 10.0 mi NW 10.4 mph - N/A   Overcast
8:35 PM 44.6 °F 39.2 °F 32.0 °F 61% 30.03 in 10.0 mi NW 10.4 mph - N/A   Overcast
8:55 PM 44.6 °F 40.7 °F 32.0 °F 61% 30.04 in 10.0 mi WNW 6.9 mph - N/A   Overcast
9:15 PM 42.8 °F 38.0 °F 32.0 °F 66% 30.04 in 10.0 mi NW 8.1 mph - N/A   Overcast
9:55 PM 41.0 °F 35.8 °F 32.0 °F 70% 30.05 in 10.0 mi NNW 8.1 mph - N/A   Overcast
10:15 PM 41.0 °F 35.2 °F 32.0 °F 70% 30.05 in 10.0 mi NW 9.2 mph - N/A   Overcast
10:35 PM 41.0 °F 35.2 °F 32.0 °F 70% 30.06 in 10.0 mi WNW 9.2 mph - N/A   Mostly Cloudy
10:55 PM 41.0 °F 35.8 °F 32.0 °F 70% 30.05 in 10.0 mi WNW 8.1 mph - N/A   Partly Cloudy
11:15 PM 39.2 °F 33.0 °F 32.0 °F 75% 30.05 in 10.0 mi NW 9.2 mph - N/A   Clear
11:35 PM 39.2 °F 32.0 °F 32.0 °F 75% 30.05 in 10.0 mi West 11.5 mph - N/A   Clear
11:55 PM 39.2 °F 33.0 °F 32.0 °F 75% 30.05 in 10.0 mi WNW 9.2 mph - N/A   Clear